Location: Newark
(15.4608°S, 41.1635°W)
Time: 14:43:14
(UTC+00:00)

Envisat - Pass Details

Date: 25 June 2021
Orbit: 764 x 766 km, 98.1° (Epoch: 25 July)

Event Time Altitude Azimuth Distance (km) Brightness Sun altitude
Rises 06:19:09 0° 59° (ENE) 3,218 7.1 -39.7°
Reaches altitude 10° 06:23:33 10° 95° (E) 2,302 6.1 -38.7°
Maximum altitude 06:24:40 11° 108° (ESE) 2,255 5.9 -38.4°
Drops below altitude 10° 06:25:48 10° 121° (ESE) 2,307 5.8 -38.2°
Enters shadow 06:27:06 - 135° (SE) 2,479 5.9 -37.9°
